Izmir, Turkey

8:38 AM EET on February 09, 2016 (GMT +0200)
Adnan Menderes

Weather History for LTBJ - March, 2013

Change the Weather History Date:

Friday, March 8, 2013

  Actual Average (LTBL) Record (LTBL)
Temperature  
Mean Temperature 52 °F -  
Max Temperature 56 °F 60 °F 73 °F (2002)
Min Temperature 48 °F 40 °F 28 °F (2004)
Degree Days  
Heating Degree Days 13    
Growing Degree Days 2 (Base 50)    
Moisture  
Dew Point 46 °F    
Average Humidity 82    
Maximum Humidity 94    
Minimum Humidity 71    
Precipitation  
Precipitation 0.08 in - - ()
Sea Level Pressure  
Sea Level Pressure 29.93 in    
Wind  
Wind Speed 3 mph ()    
Max Wind Speed 9 mph    
Max Gust Speed -    
Visibility 6.4 miles    
Events Rain    
Averages and records for this station are not official NWS values.
T = Trace of Precipitation, MM = Missing Value Source: Averaged Metar Reports

Daily Weather History Graph

Daily Weather History Graph

Search for Another Location

Airport or City:

Trip Planner

Search our weather history database for the weather conditions in past years. The results will help you decide how hot, cold, wet, or windy it might be!

Date:

Astronomy

Mar. 08, 2013 Rise Set
Actual Time 6:33 AM EET 6:11 PM EET
Civil Twilight 6:06 AM EET 6:38 PM EET
Nautical Twilight 5:36 AM EET 7:08 PM EET
Astronomical Twilight 5:05 AM EET 7:39 PM EET
Moon 4:01 AM EET (3/8) 2:47 PM EET (3/8)
Length of Visible Light 12h 31m
Length of Day
11h 38m
Waning Crescent, 14% of the Moon is Illuminated
Mar 8
Waning Crescent
Mar 11
New
Mar 19
First Quarter
Mar 27
Full
Apr 3
Last Quarter

Hourly Weather History & Observations

Time (EET) Temp. Dew Point Humidity Pressure Visibility Wind Dir Wind Speed Gust Speed Precip Events Conditions
12:20 AM 50.0 °F 42.8 °F 76% 29.98 in 6.2 mi Variable 3.5 mph - N/A   Mostly Cloudy
12:50 AM 50.0 °F 41.0 °F 71% 29.98 in 6.2 mi Calm Calm - N/A   Mostly Cloudy
1:20 AM 50.0 °F 42.8 °F 76% 29.98 in 6.2 mi Calm Calm - N/A   Mostly Cloudy
1:50 AM 48.2 °F 42.8 °F 82% 29.98 in 6.2 mi Calm Calm - N/A   Mostly Cloudy
2:00 AM 49 °F 42 °F 71% 29.99 in 9 mi Calm Calm - -   Partly Cloudy
2:20 AM 48.2 °F 42.8 °F 82% 29.98 in 6.2 mi Calm Calm - N/A   Mostly Cloudy
2:50 AM 48.2 °F 42.8 °F 82% 29.95 in 6.2 mi South 3.5 mph - N/A   Mostly Cloudy
3:20 AM 50.0 °F 41.0 °F 71% 29.95 in 6.2 mi SE 5.8 mph - N/A   Mostly Cloudy
3:50 AM 50.0 °F 41.0 °F 71% 29.95 in 6.2 mi South 5.8 mph - N/A   Mostly Cloudy
4:20 AM 50.0 °F 41.0 °F 71% 29.95 in 6.2 mi South 5.8 mph - N/A   Mostly Cloudy
4:35 AM 50.0 °F 42.8 °F 76% 29.95 in 6.2 mi South 4.6 mph - N/A Rain Light Rain Showers
4:50 AM 50.0 °F 42.8 °F 76% 29.95 in 6.2 mi SSW 4.6 mph - N/A Rain Light Rain Showers
5:20 AM 50.0 °F 42.8 °F 76% 29.95 in 6.2 mi Calm Calm - N/A Rain Light Rain Showers
5:50 AM 48.2 °F 44.6 °F 87% 29.95 in 6.2 mi Calm Calm - N/A   Mostly Cloudy
6:20 AM 48.2 °F 44.6 °F 87% 29.92 in 6.2 mi Calm Calm - N/A   Mostly Cloudy
6:50 AM 48.2 °F 44.6 °F 87% 29.92 in 6.2 mi Calm Calm - N/A   Mostly Cloudy
7:20 AM 50.0 °F 44.6 °F 82% 29.95 in 6.2 mi Calm Calm - N/A   Mostly Cloudy
7:50 AM 50.0 °F 44.6 °F 82% 29.95 in 6.2 mi Calm Calm - N/A Rain Light Rain Showers
8:00 AM 50 °F 45 °F 78% 29.95 in 9 mi Calm Calm - - Rain Light Rain Showers
8:20 AM 50.0 °F 46.4 °F 87% 29.95 in 6.2 mi Calm Calm - N/A Rain Light Rain Showers
8:50 AM 51.8 °F 44.6 °F 76% 29.95 in 6.2 mi Calm Calm - N/A Rain Light Rain Showers
9:20 AM 51.8 °F 46.4 °F 82% 29.95 in 6.2 mi Calm Calm - N/A Rain Light Rain Showers
9:50 AM 53.6 °F 46.4 °F 77% 29.95 in 6.2 mi Variable 1.2 mph - N/A Rain Light Rain Showers
10:20 AM 53.6 °F 46.4 °F 77% 29.95 in 6.2 mi WSW 8.1 mph - N/A   Mostly Cloudy
10:50 AM 53.6 °F 46.4 °F 77% 29.95 in 6.2 mi SSW 5.8 mph - N/A   Mostly Cloudy
11:20 AM 55.4 °F 46.4 °F 72% 29.95 in 6.2 mi SW 6.9 mph - N/A   Mostly Cloudy
11:50 AM 55.4 °F 46.4 °F 72% 29.92 in 6.2 mi SW 6.9 mph - N/A   Mostly Cloudy
12:20 PM 55.4 °F 46.4 °F 72% 29.92 in 6.2 mi SW 6.9 mph - N/A   Mostly Cloudy
12:50 PM 55.4 °F 46.4 °F 72% 29.92 in 6.2 mi SW 5.8 mph - N/A   Mostly Cloudy
1:10 PM 55.4 °F 48.2 °F 77% 29.92 in 6.2 mi SW 6.9 mph - N/A Rain Light Rain Showers
1:20 PM 55.4 °F 48.2 °F 77% 29.92 in 6.2 mi SW 6.9 mph - N/A Rain Light Rain Showers
1:50 PM 53.6 °F 48.2 °F 82% 29.92 in 6.2 mi SW 4.6 mph - N/A Rain Light Rain Showers
2:00 PM 54 °F 49 °F 77% 29.94 in 9 mi SW 4.6 mph - - Rain Light Rain Showers
2:20 PM 53.6 °F 50.0 °F 88% 29.92 in 6.2 mi SSE 3.5 mph - N/A Rain Light Rain Showers
2:50 PM 53.6 °F 50.0 °F 88% 29.92 in 6.2 mi SSE 3.5 mph - N/A Rain Light Rain Showers
3:20 PM 53.6 °F 50.0 °F 88% 29.89 in 6.2 mi SSE 4.6 mph - N/A   Mostly Cloudy
3:50 PM 53.6 °F 50.0 °F 88% 29.89 in 6.2 mi South 6.9 mph - N/A   Mostly Cloudy
4:20 PM 53.6 °F 48.2 °F 82% 29.89 in 6.2 mi SSW 4.6 mph - N/A   Mostly Cloudy
4:50 PM 53.6 °F 48.2 °F 82% 29.89 in 6.2 mi SSE 6.9 mph - N/A   Mostly Cloudy
5:20 PM 53.6 °F 48.2 °F 82% 29.89 in 6.2 mi SE 8.1 mph - N/A   Mostly Cloudy
5:50 PM 51.8 °F 50.0 °F 94% 29.89 in 6.2 mi SE 6.9 mph - N/A   Mostly Cloudy
6:20 PM 51.8 °F 48.2 °F 88% 29.92 in 6.2 mi SSE 8.1 mph - N/A   Mostly Cloudy
6:50 PM 51.8 °F 48.2 °F 88% 29.92 in 6.2 mi SSE 5.8 mph - N/A   Mostly Cloudy
7:20 PM 51.8 °F 48.2 °F 88% 29.92 in 6.2 mi South 4.6 mph - N/A   Mostly Cloudy
7:50 PM 51.8 °F 48.2 °F 88% 29.92 in 6.2 mi SE 9.2 mph - N/A   Mostly Cloudy
8:00 PM 52 °F 49 °F 84% 29.94 in 9 mi SE 9.2 mph - -   Partly Cloudy
8:20 PM 51.8 °F 48.2 °F 88% 29.92 in 6.2 mi SE 6.9 mph - N/A   Mostly Cloudy
8:50 PM 51.8 °F 48.2 °F 88% 29.92 in 6.2 mi SE 8.1 mph - N/A   Mostly Cloudy
9:20 PM 51.8 °F 48.2 °F 88% 29.92 in 6.2 mi SE 5.8 mph - N/A   Mostly Cloudy
9:50 PM 50.0 °F 48.2 °F 94% 29.92 in 6.2 mi SSW 4.6 mph - N/A   Mostly Cloudy
10:20 PM 50.0 °F 48.2 °F 94% 29.92 in 6.2 mi South 4.6 mph - N/A   Mostly Cloudy
10:50 PM 50.0 °F 48.2 °F 94% 29.92 in 6.2 mi South 4.6 mph - N/A   Mostly Cloudy
11:20 PM 51.8 °F 48.2 °F 88% 29.92 in 6.2 mi South 4.6 mph - N/A   Mostly Cloudy
11:50 PM 50.0 °F 48.2 °F 94% 29.92 in 6.2 mi South 4.6 mph - N/A   Mostly Cloudy